Regional Weather Roundup
Issued by NWS Sioux Falls, SD

Home | Current Version | Previous Version | Graphics & Text | Print | Product List | Glossary On
Versions: 1 2 3 4 5 6 7 8 9 10 11 12 13 14 15 16 17 18 19 20 21 22 23 24 25 26 27 28 29 30 31 32 33 34 35 36 37 38 39 40 41 42 43 44 45 46 47 48 49 50
458
ASUS43 KFSD 281810
RWRFSD

WEATHER ROUNDUP FOR SE SOUTH DAKOTA/SW MINNESOTA/NW IOWA
NATIONAL WEATHER SERVICE SIOUX FALLS SD
100 PM CDT SAT MAY 28 2016

NOTE: "FAIR" INDICATES FEW OR NO CLOUDS BELOW 12,000 FEET WITH NO
SIGNIFICANT WEATHER AND OR OBSTRUCTIONS TO VISIBILITY.


SDZ038>040-050-052>070-281900-
SOUTHEAST SOUTH DAKOTA

CITY           SKY/WX    TMP DP  RH WIND       PRES   REMARKS
BROOKINGS      RAIN      60  58  92 N7        29.80S
CHAMBERLAIN    CLOUDY    66  59  77 N10       29.84S
6HR MIN TEMP:  60; 6HR MAX TEMP:  66;

HURON          LGT RAIN  63  61  93 N7        29.80S
6HR MIN TEMP:  58; 6HR MAX TEMP:  64; 6HR PCP:  0.15;

MADISON        LGT RAIN  59  59 100 NE15      29.79S
MITCHELL       LGT RAIN  63  61  93 NW12      29.80S
6HR MIN TEMP:  60; 6HR MAX TEMP:  63; 6HR PCP:  0.38;

SIOUX FALLS    CLOUDY    68  61  78 N14       29.76F
6HR MIN TEMP:  60; 6HR MAX TEMP:  70; 6HR PCP:  0.60;

WINNER         FAIR      66  55  67 NW13      29.86S
YANKTON        CLOUDY    66  59  77 NW18      29.74F
$$

MNZ071-072-080-081-089-090-097-098-281900-
SOUTHWEST MINNESOTA

CITY           SKY/WX    TMP DP  RH WIND       PRES   REMARKS
FAIRMONT       CLOUDY    64  61  88 CALM      29.76F
JACKSON        LGT RAIN  64  59  82 NW3       29.79R
LUVERNE        CLOUDY    61  57  88 N7        29.78R
MARSHALL       RAIN      61  59  94 NE7       29.80S
6HR MIN TEMP:  59; 6HR MAX TEMP:  60; 6HR PCP:  0.80;

MONTEVIDEO     LGT RAIN  61  61 100 CALM      29.82R
PIPESTONE      CLOUDY    63  61  94 NE10G17   29.79S
REDWOOD FALLS  LGT RAIN  60  58  92 NE5       29.77F
WINDOM         CLOUDY    64  61  88 CALM      29.78S
WORTHINGTON    CLOUDY    65  60  84 N7        29.78S
$$

IAZ001>003-012>014-020>022-031-032-NEZ013-014-SDZ071-281900-
NORTHWEST IOWA

CITY           SKY/WX    TMP DP  RH WIND       PRES   REMARKS
CHEROKEE       SUNNY     71  61  70 S13       29.75S
DENISON        PTSUNNY   70  57  64 SW8G18    29.75F
ESTHERVILLE    PTSUNNY   68  59  73 S5        29.76F
LE MARS        CLOUDY    68  61  77 SW9       29.75F
ORANGE CITY    PTSUNNY   66  59  77 SW3       29.76S
SHELDON        PTSUNNY   68  59  73 W7G13     29.75S
SIOUX CITY     MOSUNNY   71  60  68 S12       29.73F
6HR MIN TEMP:  62; 6HR MAX TEMP:  72;

SPENCER        PTSUNNY   71  58  63 SW8       29.76S
6HR MIN TEMP:  62; 6HR MAX TEMP:  72; 6HR PCP:  0.63;

STORM LAKE     MOSUNNY   70  59  68 SW10G20   29.77S
$$

ABBREVIATIONS USED IN REMARKS
   TC - TEMPERATURE IN CELSIUS
  WCI - WIND CHILL INDEX
   HX - HEAT INDEX
  VSB - VISIBILITY





USA.gov is the U.S. government's official web portal to all federal, state and local government web resources and services.